{"data":{"norad_id":58608,"intl_designator":"2023-200V","name":"STARLINK-31067","alt_names":[],"object_type":"PAYLOAD","status":"ACTIVE","operator":null,"country":"US","launch_date":"2023-12-19","launch_site_code":"AFETR","launch_vehicle":null,"mission":null,"orbit_class":"UNKNOWN","rcs_meters":null,"size_class":null,"mass_kg":null,"dimensions":null,"purposes":["comms"],"wikipedia_slug":null,"has_3d_model":false,"image_url":null,"decayed_at":null,"tle_current":{"epoch":"2026-09-19T23:25:28.239456Z","epoch_age_seconds":195108,"freshness":"STALE","line1":"1 58608U 23200V   26262.97602129  .00001311  00000+0  57158-4 0  9993","line2":"2 58608  43.0008 151.6845 0001346 264.6205  95.4493 15.27574498153323","mean_motion":15.27574498,"eccentricity":0.0001346,"inclination_deg":43.0008,"raan_deg":151.6845,"arg_perigee_deg":264.6205,"mean_anomaly_deg":95.4493,"bstar":5.7158e-5,"rev_number":15332,"period_min":94.267088242527,"perigee_km":482.14205319037,"apogee_km":483.9890889225,"semimajor_km":6861.2025710564,"source":"CELESTRAK","updated_at":"2026-09-21T09:00:33.920743Z"}}}